Tracking 27122 objects as of 26-Mar-2023
HD Live streaming from Space Station
objects crossing your sky now

SL-12 R/B(2)

Track SL-12 R/B(2) now!


NORAD ID: 17972
Int'l Code: 1987-040D
Perigee: 34,987.7 km
Apogee: 35,096.1 km
Inclination: 10.0 °
Period: 1,397.9 minutes
Semi major axis: 41412 km
RCS: 2.4813 m2 (large)
Launch date: May 11, 1987
Source: Commonwealth of Independent States (former USSR) (CIS)
Launch site: TYURATAM MISSILE AND SPACE COMPLEX (TTMTR)

Note: This is a ROCKET BODY
Your satellite tracking list
Your tracking list is empty




NASA's NSSDC Master Catalog

Two Line Element Set (TLE):
1 17972U 87040D   23084.34307344 -.00000044  00000-0  00000+0 0  9998
2 17972   9.9843 317.6709 0013085 288.9515  57.6064  1.03014773113873
Source of the keplerian elements: AFSPC